This is the latest recevied weather packets stored in our database for station/object 7M1JBF-11. If no packets are shown the sender has not sent any weather packets the latest 10 day(s).
| Time | Temp. | Humidity | Pressure | Rain* | Wind** | Luminosity | Snow |
|---|---|---|---|---|---|---|---|
| 1777791081 | 22.78° C | 100% | 1006.1 hPa | 0 mm | - | - | - |
| 1777790480 | 22.78° C | 100% | 1006.3 hPa | 0 mm | - | - | - |
| 1777789277 | 23.33° C | 100% | 1006.5 hPa | 0 mm | - | - | - |
| 1777788074 | 23.33° C | 100% | 1006.7 hPa | 0 mm | - | - | - |
| 1777787473 | 23.33° C | 100% | 1006.1 hPa | 0 mm | - | - | - |
| 1777786872 | 23.33° C | 100% | 1007.2 hPa | 0 mm | - | - | - |
| 1777786270 | 23.33° C | 100% | 1007.3 hPa | 0 mm | - | - | - |
| 1777785669 | 23.33° C | 100% | 1007 hPa | 0 mm | - | - | - |
| 1777785068 | 23.89° C | 100% | 1007.3 hPa | 0 mm | - | - | - |
| 1777784466 | 23.89° C | 100% | 1007.8 hPa | 0 mm | - | - | - |
| 1777783866 | 23.89° C | 100% | 1008 hPa | 0 mm | - | - | - |
| 1777783264 | 23.89° C | 100% | 1008 hPa | 0 mm | - | - | - |
| 1777782664 | 24.44° C | 100% | 1008.2 hPa | 0 mm | - | - | - |
| 1777782061 | 24.44° C | 100% | 1008.4 hPa | 0 mm | - | - | - |
| 1777781460 | 25° C | 100% | 1008.8 hPa | 0 mm | - | - | - |
| 1777780858 | 24.44° C | 100% | 1008.7 hPa | 0 mm | - | - | - |
| 1777780257 | 24.44° C | 100% | 1009 hPa | 0 mm | - | - | - |
| 1777779656 | 24.44° C | 100% | 1009.2 hPa | 0 mm | - | - | - |
| 1777779054 | 24.44° C | 100% | 1009.5 hPa | 0 mm | - | - | - |
| 1777778453 | 24.44° C | 100% | 1009.7 hPa | 0 mm | - | - | - |
| 1777777851 | 24.44° C | 100% | 1009.9 hPa | 0 mm | - | - | - |
| 1777777250 | 24.44° C | 100% | 1010.1 hPa | 0 mm | - | - | - |
| 1777776649 | 23.89° C | 100% | 1010.3 hPa | 0 mm | - | - | - |
| 1777776047 | 23.89° C | 100% | 1010.4 hPa | 0 mm | - | - | - |
| 1777775446 | 23.33° C | 100% | 1010.5 hPa | 0 mm | - | - | - |
* Rain since midnight (hover to see other rain measurements)
** Current wind speed in m/s (hover to see current wind gust speed)